Date String (YYYY-MM-DD hh:mm:ss) UTC,Instrument flags,Ambient pressure (hPa),Sample flow (lpm),Bypass flow (lpm),Sample temperature (°C),Ambient temperature (°C),ASC tube jacket temperature (°C),LED temperature (°C),Box temperature (°C),Sample RH (%),Span deviation,Mass concentration (μg/m³),Mass concentration (μg/m³),Mass concentration (μg/m³)
DateTimeUTC,F1_M11,P_M11,Q1_M11,Q2_M11,T1_M11,T2_M11,T3_M11,T4_M11,T5_M11,U1_M11,ZSPAN_M11,X0_M11,X2_M11,X1_M11
2022-09-15 22:00:00,,0825.2,5.01,0.00,30.0,29.0,00.0,38.6,32.0,22.6,0000.0,0009.26,0002.43,0001.88
2022-09-15 22:01:00,,0825.2,4.99,0.00,30.1,29.0,00.0,38.7,32.0,22.7,0000.0,0009.17,0002.38,0001.88
2022-09-15 22:02:00,,0825.2,5.01,0.00,30.1,28.0,00.0,38.7,32.0,22.6,0000.0,0008.87,0002.36,0001.87
2022-09-15 22:03:00,,0825.2,5.00,0.00,30.0,26.7,00.0,38.6,31.8,22.2,0000.0,0008.52,0002.34,0001.87
2022-09-15 22:04:00,,0825.2,5.01,0.00,30.0,26.3,00.0,38.6,31.8,22.1,0000.0,0007.60,0002.33,0001.86
2022-09-15 22:05:00,,0825.2,4.99,0.00,29.9,26.6,00.0,38.5,31.5,23.1,0000.0,0007.06,0002.29,0001.84
2022-09-15 22:06:00,,0825.2,4.99,0.00,29.8,26.9,00.0,38.5,31.4,23.4,0000.0,0007.19,0002.28,0001.83
2022-09-15 22:07:00,,0825.2,5.00,0.00,29.8,27.3,00.0,38.5,31.5,23.1,0000.0,0007.35,0002.32,0001.84
2022-09-15 22:08:00,,0825.2,5.00,0.00,29.8,27.6,00.0,38.5,31.5,23.4,0000.0,0007.23,0002.29,0001.83
2022-09-15 22:09:00,,0825.2,5.01,0.00,29.8,27.9,00.0,38.5,31.6,23.7,0000.0,0005.97,0002.33,0001.84
2022-09-15 22:10:00,,0825.2,4.99,0.00,29.8,28.2,00.0,38.5,31.7,23.7,0000.0,0004.97,0002.34,0001.84
2022-09-15 22:11:00,,0825.2,5.00,0.00,29.8,28.3,00.0,38.5,31.7,23.6,0000.0,0004.94,0002.30,0001.84
2022-09-15 22:12:00,,0825.2,5.00,0.00,29.8,28.4,00.0,38.5,31.7,23.2,0000.0,0006.21,0002.32,0001.84
2022-09-15 22:13:00,,0825.2,5.01,0.00,29.9,28.5,00.0,38.5,31.8,23.3,0000.0,0007.36,0002.33,0001.84
2022-09-15 22:14:00,,0825.2,4.99,0.00,29.9,28.7,00.0,38.6,31.8,23.2,0000.0,0007.41,0002.36,0001.84
2022-09-15 22:15:00,,0825.2,4.99,0.00,29.9,28.8,00.0,38.6,31.9,23.4,0000.0,0007.41,0002.39,0001.84
2022-09-15 22:16:00,,0825.2,5.01,0.00,30.0,28.9,00.0,38.6,31.9,23.2,0000.0,0008.20,0002.40,0001.86
2022-09-15 22:17:00,,0825.2,5.00,0.00,30.0,29.0,00.0,38.6,32.0,23.0,0000.0,0008.43,0002.44,0001.89
2022-09-15 22:18:00,,0825.2,5.00,0.00,30.0,28.7,00.0,38.6,32.0,22.9,0000.0,0008.95,0002.44,0001.89
2022-09-15 22:19:00,,0825.2,5.01,0.00,30.0,27.3,00.0,38.6,31.9,22.7,0000.0,0009.25,0002.45,0001.90
2022-09-15 22:20:00,,0825.2,5.00,0.00,30.0,26.4,00.0,38.6,31.8,22.9,0000.0,0009.22,0002.41,0001.91
2022-09-15 22:21:00,,0825.2,5.00,0.00,29.9,26.4,00.0,38.5,31.7,23.2,0000.0,0009.60,0002.41,0001.92
2022-09-15 22:22:00,,0825.2,5.02,0.00,29.8,26.7,00.0,38.5,31.5,23.6,0000.0,0009.67,0002.44,0001.93
2022-09-15 22:23:00,,0825.2,5.01,0.00,29.8,27.1,00.0,38.5,31.4,23.2,0000.0,0009.12,0002.42,0001.93
2022-09-15 22:24:00,,0825.3,5.00,0.00,29.8,27.4,00.0,38.5,31.5,23.5,0000.0,0008.20,0002.39,0001.93
2022-09-15 22:25:00,,0825.3,4.99,0.00,29.8,27.8,00.0,38.5,31.6,23.4,0000.0,0008.13,0002.40,0001.93
2022-09-15 22:26:00,,0825.3,5.01,0.00,29.8,28.0,00.0,38.5,31.6,23.3,0000.0,0008.20,0002.41,0001.93
2022-09-15 22:27:00,,0825.3,4.99,0.00,29.8,28.2,00.0,38.5,31.6,23.4,0000.0,0007.71,0002.44,0001.91
2022-09-15 22:28:00,,0825.3,5.01,0.00,29.8,28.4,00.0,38.5,31.7,22.9,0000.0,0008.20,0002.39,0001.90
2022-09-15 22:29:00,,0825.3,4.99,0.00,29.8,28.5,00.0,38.5,31.7,22.9,0000.0,0007.59,0002.35,0001.90
2022-09-15 22:30:00,,0825.3,5.01,0.00,29.9,28.6,00.0,38.5,31.8,22.8,0000.0,0007.14,0002.34,0001.90
2022-09-15 22:31:00,,0825.3,4.99,0.00,29.9,28.8,00.0,38.5,31.8,23.3,0000.0,0007.06,0002.36,0001.90
2022-09-15 22:32:00,,0825.3,5.01,0.00,29.9,28.9,00.0,38.5,31.9,23.2,0000.0,0006.43,0002.37,0001.89
2022-09-15 22:33:00,,0825.3,5.00,0.00,30.0,29.0,00.0,38.6,31.9,22.8,0000.0,0006.46,0002.35,0001.88
2022-09-15 22:34:00,,0825.3,5.00,0.00,30.0,28.6,00.0,38.6,32.0,22.5,0000.0,0006.60,0002.33,0001.88
2022-09-15 22:35:00,,0825.3,5.00,0.00,30.0,27.3,00.0,38.6,31.9,22.5,0000.0,0006.53,0002.32,0001.88
2022-09-15 22:36:00,,0825.4,5.00,0.00,29.9,26.4,00.0,38.6,31.7,22.5,0000.0,0006.41,0002.30,0001.87
2022-09-15 22:37:00,,0825.3,5.00,0.00,29.9,26.4,00.0,38.5,31.7,22.7,0000.0,0006.31,0002.28,0001.85
2022-09-15 22:38:00,,0825.4,5.01,0.00,29.8,26.7,00.0,38.5,31.5,22.9,0000.0,0005.46,0002.20,0001.84
2022-09-15 22:39:00,,0825.4,5.00,0.00,29.7,27.0,00.0,38.5,31.4,22.8,0000.0,0003.98,0002.20,0001.83
2022-09-15 22:40:00,,0825.4,5.00,0.00,29.7,27.4,00.0,38.4,31.5,22.8,0000.0,0004.01,0002.20,0001.82
2022-09-15 22:41:00,,0825.4,4.99,0.00,29.7,27.7,00.0,38.4,31.5,22.7,0000.0,0004.10,0002.21,0001.80
2022-09-15 22:42:00,,0825.4,5.01,0.00,29.7,28.0,00.0,38.4,31.6,22.6,0000.0,0004.33,0002.23,0001.78
2022-09-15 22:43:00,,0825.4,4.98,0.00,29.8,28.2,00.0,38.4,31.6,22.5,0000.0,0004.25,0002.20,0001.75
2022-09-15 22:44:00,,0825.4,5.01,0.00,29.8,28.3,00.0,38.4,31.7,22.4,0000.0,0003.96,0002.17,0001.74
2022-09-15 22:45:00,,0825.4,4.99,0.00,29.8,28.5,00.0,38.4,31.7,22.3,0000.0,0003.76,0002.20,0001.73
2022-09-15 22:46:00,,0825.4,5.01,0.00,29.8,28.6,00.0,38.5,31.7,22.3,0000.0,0003.72,0002.20,0001.72
2022-09-15 22:47:00,,0825.4,4.99,0.00,29.9,28.8,00.0,38.5,31.8,22.8,0000.0,0003.71,0002.19,0001.71
2022-09-15 22:48:00,,0825.4,5.00,0.00,29.9,28.9,00.0,38.5,31.9,22.8,0000.0,0003.66,0002.18,0001.72
2022-09-15 22:49:00,,0825.4,5.00,0.00,29.9,29.0,00.0,38.5,31.9,22.6,0000.0,0003.72,0002.21,0001.72
2022-09-15 22:50:00,,0825.4,5.00,0.00,30.0,29.0,00.0,38.6,31.9,22.6,0000.0,0003.47,0002.22,0001.72
2022-09-15 22:51:00,,0825.5,5.00,0.00,30.0,28.1,00.0,38.6,31.9,22.2,0000.0,0003.29,0002.20,0001.72
2022-09-15 22:52:00,,0825.4,5.00,0.00,30.0,27.1,00.0,38.6,31.9,22.4,0000.0,0003.44,0002.19,0001.72
2022-09-15 22:53:00,,0825.4,5.01,0.00,30.0,27.1,00.0,38.5,31.8,22.9,0000.0,0003.29,0002.15,0001.72
2022-09-15 22:54:00,,0825.4,5.01,0.00,29.9,27.3,00.0,38.5,31.6,22.3,0000.0,0003.28,0002.16,0001.72
2022-09-15 22:55:00,,0825.4,5.00,0.00,29.8,27.6,00.0,38.5,31.6,22.2,0000.0,0003.38,0002.18,0001.72
2022-09-15 22:56:00,,0825.4,5.00,0.00,29.9,27.9,00.0,38.5,31.7,22.5,0000.0,0003.40,0002.15,0001.72
2022-09-15 22:57:00,,0825.4,5.01,0.00,29.9,28.2,00.0,38.5,31.7,22.2,0000.0,0003.64,0002.14,0001.71
2022-09-15 22:58:00,,0825.4,5.00,0.00,29.9,28.4,00.0,38.5,31.7,22.2,0000.0,0003.71,0002.15,0001.71
2022-09-15 22:59:00,,0825.4,5.01,0.00,29.9,28.5,00.0,38.5,31.8,22.5,0000.0,0003.74,0002.15,0001.71
